Regional Weather Roundup
Issued by NWS

Home | Current Version | Previous Version | Graphics & Text | Print | Product List | Glossary Off
Versions: 1 2 3 4 5 6 7 8 9 10 11 12 13 14 15 16 17 18 19 20 21 22 23 24 25 26 27 28 29 30 31 32 33 34 35 36 37 38 39 40 41 42 43 44 45 46 47 48 49 50

000
ASUS43 KDMX 291703
RWRIA

WEATHER ROUNDUP FOR IOWA
NATIONAL WEATHER SERVICE DES MOINES IA
1200 PM CDT SUN MAY 29 2016

NOTE: "FAIR" INDICATES FEW OR NO CLOUDS BELOW 12,000 FEET WITH NO
SIGNIFICANT WEATHER AND/OR OBSTRUCTIONS TO VISIBILITY.

* - THESE STATIONS ARE NOT NWS STATIONS...THUS NOT UNDER NWS
QUALITY CONTROL.  THEY ALSO DO NOT REPORT WEATHER SUCH
AS PRECIPITATION OR FOG.

IAZ001>003-012>014-020>022-031>034-043>046-291800-
   NORTHWEST IOWA

CITY           SKY/WX    TMP DP  RH WIND       PRES   REMARKS
CARROLL *      SUNNY     75  57  53 W9G15     30.08S
CHEROKEE *     SUNNY     74  62  67 W12       30.07F
DENISON *      MOSUNNY   73  59  60 SW10      30.07S
LE MARS *      SUNNY     75  61  60 SW8       30.07S
ORANGE CITY *  SUNNY     72  63  73 W10       30.07S
SHELDON *      MOSUNNY   73  63  68 W13       30.05S
SIOUX CITY     SUNNY     78  59  51 W10       30.07S
SPENCER        MOSUNNY   72  60  66 W16G23    30.06S
STORM LAKE *   SUNNY     73  59  60 W13       30.09R
$$

IAZ055>058-069>071-079>083-090>094-291800-
   SOUTHWEST IOWA

CITY           SKY/WX    TMP DP  RH WIND       PRES   REMARKS
ATLANTIC *     CLOUDY    75  59  57 W6        30.10S
AUDUBON *        N/A     75  59  57 SW8       30.11R
CLARINDA *       N/A     77  61  57 MISG      30.11S
COUNCIL BLFS * SUNNY     75  59  57 SW6       30.10S
CRESTON *      SUNNY     75  55  50 W9        30.12S
HARLAN  *      SUNNY     73  55  53 VRB6G12   30.13F
LAMONI           N/A     76  61  59 W9        30.11S
RED OAK *      MOSUNNY   75  59  57 SW6       30.10F
SHENANDOAH *   PTSUNNY   77  61  57 VRB5      30.11R
$$

IAZ047>049-059>061-072>074-084-291800-
   CENTRAL IOWA

CITY           SKY/WX    TMP DP  RH WIND       PRES   REMARKS
AMES           SUNNY     74  61  63 W8        30.08R
ANKENY *       SUNNY     75  61  60 W8        30.08S
BOONE *        SUNNY     73  59  60 W10G16    30.07S
CHARITON *     SUNNY     75  59  57 W9        30.10S
DES MOINES     MOSUNNY   77  59  53 SW9       30.08S
GRINNELL*      SUNNY     73  59  60 W9        30.09R
KNOXVILLE *    SUNNY     73  59  60 W10       30.08S
MARSHALLTOWN   MOSUNNY   74  61  63 W13       30.06S
NEWTON *       SUNNY     73  63  68 SW10      30.08S
PELLA *        SUNNY     74  59  60 W8        30.10R
PERRY *          N/A     75  61  60 W6        30.09S
$$

IAZ004>006-015-016-023>025-035-036-291800-
   NORTH CENTRAL IOWA

CITY           SKY/WX    TMP DP  RH WIND       PRES   REMARKS
ALGONA *       MOSUNNY   73  61  64 W17       30.05S
CLARION *      MOSUNNY   73  61  64 W15       30.06S
ESTHERVILLE    MOSUNNY   72  62  71 W16G26    30.04S
FORT DODGE *   MOSUNNY   77  57  50 W9G17     30.07S
MASON CITY     MOSUNNY   73  61  65 W17G26    30.04F
FOREST CITY *  PTSUNNY   72  61  68 W13G18    30.03F
WEBSTER CITY * SUNNY     75  59  57 W14       30.05S
IOWA FALLS *     N/A     75  61  60 W12       30.07S
$$

IAZ007>011-017>019-026>030-037>042-050>054-066-291800-
   NORTHEAST IOWA

CITY           SKY/WX    TMP DP  RH WIND       PRES   REMARKS
CEDAR RAPIDS   MOSUNNY   74  63  68 W12       30.05S
CHARLES CITY * MOSUNNY   72  63  73 W15G21    30.04S
CLINTON *      PTSUNNY   75  63  66 W14       30.05S
DECORAH *      PTSUNNY   72  59  64 W8G18     30.01S
DUBUQUE        MOSUNNY   73  60  63 W14G23    30.04R
MONTICELLO *   MOSUNNY   75  61  60 W14       30.03F
OELWEIN *      MOSUNNY   73  61  64 W15G22    30.04S
WATERLOO       MOSUNNY   75  58  55 W14       30.03S
$$

IAZ064-065-067-068-078-291800-
   EAST CENTRAL IOWA

CITY           SKY/WX    TMP DP  RH WIND       PRES   REMARKS
DAVENPORT      MOSUNNY   74  61  63 W13       30.06S
IOWA CITY      MOSUNNY   75  60  59 W14       30.07S
MT. PLEASANT * SUNNY     77  63  61 W9        30.09S
MUSCATINE *    SUNNY     77  59  53 W10G21    30.06F
QUAD CITIES    MOSUNNY   77  61  57 W12       30.05S
$$

IAZ062-063-075>077-085>089-095>099-291800-
   SOUTHEAST IOWA

CITY           SKY/WX    TMP DP  RH WIND       PRES   REMARKS
BURLINGTON     SUNNY     76  60  57 W9        30.07S
FAIRFIELD *      N/A    N/A N/A N/A MISG        N/A
FORT MADISON * SUNNY     75  63  64 W9        30.09S
KEOKUK *       SUNNY     77  61  57 W12       30.08S
OSKALOOSA *      N/A     75  57  53 W13       30.09S
OTTUMWA        SUNNY     75  59  57 W10       30.09S
WASHINGTON *   SUNNY     75 -35   1 W13       30.09S
$$

ABBREVIATIONS USED IN REMARKS
   TC - TEMPERATURES IN CELSIUS
  WCI - WIND CHILL INDEX
   HX - HEAT INDEX
  VSB - VISIBILITY
$$





USA.gov is the U.S. government's official web portal to all federal, state and local government web resources and services.